Location: Akgöl Batakl???
(38.9482°N, 31.8837°E)
Time: 14:43:08
(UTC+00:00)

Daily predictions for brighter satellites

Satellite Brightness Start Highest point End
(mag) Time Altitude Azimuth Time Altitude Azimuth Time Altitude Azimuth
ISS -2.3 17:19:08 10° S 17:21:34 19° SE 17:24:01 10° E
Cosmos 1190 Rocket 4.3 17:18:51 10° N 17:23:58 50° ENE 17:29:00 10° SE
Cosmos 2151 Rocket 4.4 17:22:43 10° SSE 17:26:32 31° E 17:30:22 10° NNE
COSMOS 2455 4.1 17:21:19 10° NW 17:26:53 41° WSW 17:32:25 10° S
Okean 2 Rocket 4.2 17:25:24 10° SE 17:29:01 25° E 17:32:40 10° NE
Cosmos 2251 Rocket 3.7 17:24:08 10° NNW 17:29:27 61° ENE 17:34:43 10° SSE
Cosmos 1371 Rocket 4.0 17:25:05 10° S 17:30:19 69° ESE 17:35:37 10° NNE
CSL-04 Debris 4.3 17:25:06 10° SSE 17:30:23 60° ENE 17:35:44 10° N
CZ-4C R/B 2.4 17:30:27 10° SSE 17:33:38 25° ESE 17:37:21 10° NE
SL-4 R/B 3.7 17:30:51 10° NNW 17:33:54 22° NNE 17:37:01 10° ENE
ATLAS 3B R/B 3.9 17:33:03 10° NNW 17:39:59 34° NE 17:46:18 11° ESE
Cosmos 1536 Rocket 4.5 17:36:27 10° NNE 17:40:19 30° ENE 17:43:46 12° SE
SL-8 R/B 4.4 17:37:01 10° WNW 17:41:32 46° SW 17:45:55 11° SSE
Cosmos 1697 Rocket 3.6 17:39:08 10° N 17:44:11 33° ENE 17:48:24 14° ESE
ERS-1 Rocket 3.4 17:39:46 10° SE 17:44:31 46° ENE 17:49:18 10° N
DEBRIS 2.9 17:42:47 10° WSW 17:44:56 53° NNW 17:48:53 10° NE
Okean O Rocket 3.3 17:43:00 11° ESE 17:45:23 17° ENE 17:48:11 10° NNE
Cosmos 1954 Rocket 4.0 17:40:38 10° NNW 17:45:47 67° ENE 17:50:48 10° SSE
Cosmos 1867 4.1 17:40:51 10° SW 17:46:13 65° WNW 17:51:39 10° NNE
Cosmos 2360 4.2 17:40:43 10° NNW 17:46:28 89° ENE 17:52:10 10° SSE
MOS 1 4.4 17:46:54 10° SSE 17:52:26 58° ENE 17:58:01 10° N
Cosmos 1331 Rocket 4.3 17:49:06 10° S 17:54:01 43° ESE 17:58:57 10° NNE
Cosmos 332 Rocket 4.0 17:49:22 10° N 17:54:02 52° ENE 17:57:40 16° SE
Meteor 1-31 Rocket 2.5 17:53:09 10° S 17:56:38 81° WSW 18:00:07 10° NNW
Cosmos 2173 Rocket 4.2 17:51:25 10° SSE 17:57:16 51° E 18:03:12 10° NNE
Okean-O 4.0 17:55:48 16° ESE 17:58:00 23° ENE 18:01:25 10° NNE
USA 186 3.8 17:58:10 10° ENE 17:58:10 10° ENE 17:58:36 10° ENE
Meteor 2-1 Rocket 4.3 17:52:52 10° S 17:58:27 56° E 18:03:56 10° NNE
Helios 1A Rocket 2.1 17:56:25 10° NNE 17:59:35 87° ESE 18:02:43 10° SSW
Cosmos 968 Rocket 4.2 17:56:02 10° N 18:00:56 39° ENE 18:04:13 19° SE
Cosmos 676 Rocket 4.0 17:56:01 10° NNW 18:01:13 66° ENE 18:05:17 16° SSE
Aureole 1 4.3 18:03:35 10° SSW 18:06:44 87° ESE 18:10:37 10° NNE
Cosmos 1455 Rocket 4.0 18:06:04 21° SE 18:07:55 28° E 18:11:41 10° NNE
BREEZE-M DEB (TANK) 2.6 18:08:25 10° NW 18:10:53 73° NE 18:13:34 22° ESE
Cosmos 1980 Rocket 3.5 18:07:28 10° N 18:12:09 25° NE 18:15:03 17° E
Okean 1 Rocket 3.0 18:09:27 10° S 18:13:45 71° E 18:18:09 10° NNE
SL-08 R/B 3.3 18:10:55 10° NNE 18:15:44 67° ESE 18:20:27 10° S
Meteor 2-3 Rocket 3.7 18:12:02 10° N 18:17:39 67° E 18:21:40 19° SSE
ARIANE 6 FM1 Upper Stage 4.0 18:15:45 10° NW 18:19:16 31° WSW 18:22:03 14° S
CZ-4 R/B 2.4 18:18:28 10° SSW 18:21:52 38° W 18:25:16 10° NNW
Cosmos 1802 Rocket 4.1 18:17:58 13° SSE 18:23:30 57° E 18:29:31 10° NNE
ASTEX 1 4.1 18:18:52 10° S 18:23:41 54° W 18:28:33 10° NNW
Longmarch 3A Rocket 3.7 18:18:56 10° WSW 18:24:08 19° SSW 18:25:05 18° S
CZ-4B R/B 3.3 18:20:09 16° SSE 18:24:45 90° W 18:30:26 10° NNW
Cosmos 1782 3.6 18:25:15 26° E 18:25:15 26° E 18:27:55 10° NNE
Cosmos 1833 Rocket 3.8 18:20:56 10° SW 18:26:17 45° WNW 18:31:40 10° N
Cosmos 1110 Rocket 4.0 18:22:46 10° SSW 18:28:03 84° WNW 18:33:23 10° NNE
Terra 2.0 18:28:44 17° S 18:32:16 67° WSW 18:36:57 10° NNW
Sich 1 Rocket 3.7 18:32:07 11° SSW 18:36:18 73° W 18:40:39 10° N
USA 229 DEB 4.1 18:33:52 10° NW 18:41:38 88° WSW 18:46:40 27° SSE
USA 229 4.1 18:33:55 10° NNW 18:41:42 89° WSW 18:46:42 28° SSE
Cosmos 1459 Rocket 4.2 18:38:34 10° SSW 18:44:49 71° W 18:51:01 10° N
Meteor 1-27 4.1 18:41:53 22° S 18:45:37 71° E 18:51:13 10° NNE
SJ 16-02 4.1 18:44:50 10° WNW 18:46:30 12° W 18:48:08 10° WSW
YAOGAN 11 4.1 18:42:26 10° NNE 18:46:52 87° W 18:49:39 23° SSW
Cosmos 2100 Rocket 4.5 18:42:06 10° SSW 18:48:11 60° W 18:54:24 10° N
Cosmos 909 Rocket 4.2 18:43:32 12° S 18:49:28 49° ESE 18:55:28 10° NE
Cosmos 44 Rocket 3.7 18:45:17 10° SW 18:50:15 66° WNW 18:55:23 10° NNE
Ariane Rocket 3.8 18:52:17 32° E 18:53:11 34° ENE 18:57:43 10° N
BREEZE-M DEB (TANK) 4.2 18:51:17 10° W 18:55:02 25° NW 18:57:01 11° NNE
ADEOS 4.3 18:51:51 20° SSW 18:55:17 50° W 19:00:21 10° NNW
Cosmos 1743 3.0 18:54:13 10° N 18:56:24 42° NNE 18:56:24 42° NNE
ISS -2.6 18:54:57 10° WSW 18:58:09 43° NNW 19:01:22 10° NE
Spot 2 Rocket 3.5 18:56:55 35° S 18:59:02 73° WSW 19:04:04 10° NNW
MOS 1-B 4.3 18:56:44 33° S 18:59:28 84° WSW 19:05:18 10° NNW
Cosmos 2082 Rocket 2.1 18:59:05 29° S 19:02:01 68° ESE 19:07:43 10° NNE
Aureole 3 Rocket 4.5 19:00:03 37° SE 19:02:36 56° E 19:10:51 10° NNE
Cosmos 2233 Rocket 3.9 19:06:48 33° S 19:09:50 84° E 19:16:03 10° N
USA 234 4.3 19:04:48 10° ENE 19:08:15 26° E 19:08:15 26° E
Cosmos 1607 3.9 19:04:45 10° SSW 19:10:52 85° WNW 19:17:08 10° NNE
SL-4 R/B 2.0 19:07:44 10° NW 19:11:18 69° W 19:11:18 69° W
Milstar 3 3.8 19:12:38 10° WSW 19:19:18 39° S 19:20:57 36° SSE
Cosmos 2228 3.1 19:19:25 63° WSW 19:19:45 67° W 19:23:51 10° N
Okean O Rocket 2.6 19:20:14 34° SW 19:21:14 39° W 19:25:17 10° NNW
CZ-4C R/B 3.7 19:18:00 10° WSW 19:21:35 28° NW 19:25:55 10° NNE
DELTA 2 R/B (1) 3.4 19:16:20 10° WSW 19:21:52 70° SSE 19:22:25 65° ESE
Tsikada Rocket 3.8 19:16:13 10° N 19:22:26 84° E 19:24:01 53° SSE
Cosmos 1626 Rocket 4.4 19:19:44 10° N 19:23:06 39° NE 19:23:06 39° NE
COSMOS 2406 3.6 19:25:32 46° E 19:25:32 46° E 19:30:26 10° NE
Cosmos 1992 Rocket 3.8 19:26:00 69° ESE 19:26:01 69° ESE 19:31:13 10° NNE
USA 186 4.3 19:28:18 15° WNW 19:28:18 15° WNW 19:29:14 10° NW
Cosmos 1697 Rocket 3.9 19:23:05 10° NW 19:28:03 33° WSW 19:30:08 25° SW
ATLAS 3B R/B 3.1 19:23:39 10° NW 19:31:10 60° WSW 19:33:32 42° S
SL-16 R/B 3.6 19:27:49 10° N 19:32:23 24° NE 19:33:08 24° ENE
Okean-O 4.0 19:33:08 27° WSW 19:34:05 30° W 19:37:56 10° NW
CZ-4B R/B 3.3 19:39:17 77° W 19:39:17 77° W 19:44:00 10° NNW
Cosmos 2333 Rocket 3.5 19:40:22 10° N 19:45:09 27° ENE 19:45:39 27° ENE
Cosmos 2061 Rocket 4.4 19:44:57 35° SW 19:47:28 58° W 19:53:38 10° N
Cosmos 2098 Rocket 4.4 19:48:55 36° NE 19:48:55 36° NE 19:52:10 10° NNE
NOSS 3-3 (A) 3.9 19:47:13 35° WSW 19:49:20 63° NW 19:55:08 10° NNE
SPOT 3 Rocket 4.2 19:53:56 45° WSW 19:54:22 46° W 19:59:19 10° NNW
Cosmos 1980 Rocket 2.8 19:50:55 10° NW 19:56:18 45° WSW 19:56:48 44° WSW
Cosmos 1544 Rocket 4.3 19:58:36 49° NNW 19:58:36 49° NNW 20:02:01 10° N
Cosmos 1375 Rocket 4.4 20:08:15 81° ESE 20:08:15 81° ESE 20:14:46 10° NNE
Cosmos 1464 Rocket 4.0 20:08:45 66° ENE 20:08:45 66° ENE 20:14:26 10° NNE
Cosmos 1513 Rocket 4.5 20:11:46 71° SW 20:12:17 76° W 20:18:30 10° N
Chandra Rocket (1) 4.5 20:05:32 10° WSW 20:15:00 31° SW 20:15:00 31° SW
NOSS 3-3 (C) 4.5 20:15:34 35° W 20:17:18 47° NW 20:23:04 10° NNE
Cosmos 2360 Rocket 3.5 20:17:43 10° N 20:22:30 30° NE 20:22:30 30° NE
Cosmos 1072 Rocket 4.4 20:23:37 83° WNW 20:23:37 83° WNW 20:29:50 10° N
ISS -0.3 20:34:08 10° NW 20:35:05 12° NNW 20:35:05 12° NNW
Cosmos 2219 Rocket 3.7 20:35:31 10° N 20:40:07 26° NE 20:40:07 26° NE
Cosmos 2034 Rocket 4.1 20:42:55 72° NNE 20:42:55 72° NNE 20:48:38 10° N
Cosmos 2322 Rocket 2.9 20:44:44 10° NNW 20:49:16 48° NNE 20:49:16 48° NNE
USA 234 3.5 20:47:19 10° NE 20:53:48 67° NW 20:55:31 49° W
Cosmos 2278 4.5 21:03:38 10° NNW 21:07:47 49° NW 21:07:47 49° NW
Cosmos 1634 Rocket 4.3 21:13:12 59° NNE 21:13:12 59° NNE 21:18:10 10° N
SL-16 R/B 3.3 21:11:15 10° NW 21:14:58 36° WNW 21:14:58 36° WNW
SeaSat 1 4.4 21:24:17 23° NE 21:24:17 23° NE 21:27:44 10° N
Cosmos 2333 Rocket 3.5 21:24:13 10° NW 21:27:39 32° WNW 21:27:39 32° WNW
CZ-2C R/B 3.9 21:34:56 34° NE 21:34:56 34° NE 21:38:36 10° N
Cosmos 2297 Rocket 4.1 21:52:12 20° ENE 21:52:12 20° ENE 21:54:36 10° NE
Aureole 1 Rocket 4.4 21:47:35 10° NNW 21:51:55 55° N 21:51:55 55° N
BREEZE-M DEB (TANK) 4.3 21:41:42 10° SW 22:05:01 70° SE 22:10:50 10° ENE
Cosmos 2360 Rocket 3.8 22:01:31 10° NW 22:04:14 25° WNW 22:04:14 25° WNW
Cosmos 2219 Rocket 3.7 22:18:59 10° NW 22:21:48 27° NW 22:21:48 27° NW
Meteor 1-27 Rocket 4.3 22:30:22 56° NNE 22:30:22 56° NNE 22:34:58 10° NNE
Cosmos 2322 Rocket 4.4 22:29:54 10° NW 22:31:03 14° WNW 22:31:03 14° WNW
Meteor 2-4 Rocket 4.4 22:39:06 47° NE 22:39:06 47° NE 22:43:03 10° NNE
ACS3 Solar Sail 2.0 22:38:54 10° NNE 22:44:07 65° NE 22:44:07 65° NE
Iridium 4 Rocket 4.3 22:46:31 52° NE 22:46:31 52° NE 22:51:03 10° N
COSMOS 2428 3.4 22:42:24 10° NNW 22:46:33 50° NNW 22:46:33 50° NNW
Cosmos 2237 Rocket 3.2 22:46:23 10° N 22:51:43 40° ENE 22:52:25 38° ENE
Cosmos 1980 4.4 22:49:52 10° N 22:55:18 46° ENE 22:55:36 46° ENE
Cosmos 2227 Rocket 3.2 23:00:04 38° E 23:00:04 38° E 23:04:33 10° NE
ADEOS Rocket 4.5 22:53:09 10° NNE 23:00:04 35° E 23:01:56 31° ESE
SeaSat 1 4.3 23:03:53 22° NW 23:03:53 22° NW 23:05:45 10° NW
Meteor 2-10 Rocket 4.1 22:59:47 10° N 23:04:50 56° ENE 23:04:50 56° ENE
Cosmos 1553 Rocket 4.0 23:16:37 69° ESE 23:16:53 70° E 23:23:14 10° NNE
Meteor 2-11 Rocket 4.4 23:11:27 10° N 23:17:35 78° E 23:17:38 78° E
Meteor 1-18 Rocket 4.3 23:18:33 71° NE 23:18:33 71° NE 23:23:34 10° NNE
Cosmos 2263 Rocket 3.2 23:20:21 36° ESE 23:20:21 36° ESE 23:25:19 10° NE
BREEZE-M DEB (TANK) 3.7 23:17:33 10° WNW 23:22:35 68° NNE 23:30:03 10° ESE
Sich 1 4.5 23:19:56 10° N 23:22:26 34° NNE 23:22:26 34° NNE
CZ-2D R/B 4.5 23:21:27 10° ENE 23:24:18 14° E 23:26:30 12° ESE
ATLAS 5 CENTAUR R/B 3.0 23:26:35 76° S 23:27:04 84° SE 23:42:25 10° NE
NOSS 0 Rocket 4.4 23:23:21 10° NNW 23:28:04 48° WNW 23:28:04 48° WNW
CZ-3 Stage 3 4.5 23:36:47 17° SE 23:36:47 17° SE 23:40:02 10° SE
Cosmos 1655 Rocket 4.3 23:27:26 10° NNW 23:32:53 51° WNW 23:32:53 51° WNW
Cosmos 2297 Rocket 2.9 23:33:58 41° NW 23:33:58 41° NW 23:39:07 10° N
Nimbus 7 Rocket 4.3 23:28:13 10° NNE 23:34:17 86° WNW 23:34:29 83° SW
MSX 3.7 23:30:58 10° NNE 23:36:46 83° ESE 23:36:56 82° SE
Okean 3 Rocket 4.4 23:32:46 10° N 23:36:06 49° N 23:36:06 49° N
SL-08 R/B 4.4 23:36:51 10° N 23:43:13 88° E 23:44:03 69° S
Lacrosse 4 Rocket 2.7 23:46:25 34° N 23:46:25 34° N 23:48:59 10° NNE
Cosmos 1500 Rocket 4.0 23:45:37 10° N 23:49:38 58° NE 23:49:38 58° NE
ISS -1.3 23:50:53 22° N 23:51:26 23° NNE 23:54:12 10° E
Atlas Centaur 2 4.3 23:52:21 21° SSE 23:52:21 21° SSE 23:57:38 10° ESE
Cosmos 1745 Rocket 4.4 23:46:47 10° N 23:52:49 58° E 23:55:24 34° SE
